Location: Unspecified
(0.0000°N, 0.0000°E)
Time: 15:17:16
(UTC+00:00)

Envisat - Pass Details

Date: 16 August 2019
Orbit: 764 x 766 km, 98.1° (Epoch: 21 August)

Event Time Altitude Azimuth Distance (km) Brightness Sun altitude
Rises 19:09:02 0° 182° (S) 3,231 6.1 -15.7°
Reaches altitude 10° 19:11:28 10° 190° (S) 2,302 5.4 -16.3°
Maximum altitude 19:16:10 39° 258° (WSW) 1,134 4.4 -17.4°
Drops below altitude 10° 19:20:51 10° 326° (NW) 2,292 6.1 -18.6°
Sets 19:23:17 0° 334° (NNW) 3,215 6.8 -19.2°
